Precipitable_Water
0.50 0.59 0.73 0.95 1.12 1.19 1.09 1.01 0.99 1.00 0.96 0.86 0.79 0.74 0.70 0.70 0.65 0.63 0.60 0.58 0.56 0.54 0.52 0.50 0.51 0.51 0.52 0.53 0.54 0.52 0.52 0.53
0.45 0.53 0.71 0.86 1.07 1.11 1.03 0.96 0.98 1.01 0.95 0.83 0.76 0.69 0.71 0.69 0.68 0.68 0.63 0.60 0.59 0.57 0.54 0.53 0.54 0.54 0.56 0.57 0.55 0.54 0.51 0.53
0.46 0.47 0.71 0.86 0.97 1.08 1.00 0.93 0.95 1.00 0.98 0.90 0.82 0.78 0.75 0.73 0.73 0.68 0.66 0.63 0.60 0.58 0.57 0.57 0.59 0.59 0.59 0.59 0.58 0.54 0.51 0.52
0.48 0.50 0.74 0.93 0.95 1.02 0.99 0.95 0.96 1.00 0.98 0.93 0.88 0.85 0.80 0.75 0.74 0.68 0.67 0.67 0.63 0.63 0.62 0.61 0.61 0.60 0.58 0.57 0.56 0.56 0.51 0.51
0.53 0.55 0.80 0.98 0.99 1.07 1.04 1.00 0.98 1.01 1.01 0.92 0.87 0.82 0.79 0.80 0.77 0.71 0.70 0.69 0.66 0.65 0.64 0.64 0.63 0.63 0.61 0.58 0.59 0.57 0.54 0.51
0.52 0.55 0.65 0.94 0.98 1.02 1.05 1.04 1.02 1.03 1.01 0.97 0.92 0.88 0.87 0.86 0.83 0.76 0.73 0.73 0.69 0.67 0.66 0.65 0.64 0.64 0.65 0.61 0.58 0.55 0.53 0.50
0.51 0.57 0.67 0.81 0.94 1.00 1.04 1.05 1.00 1.04 1.04 1.00 0.95 0.92 0.90 0.88 0.85 0.79 0.75 0.74 0.73 0.71 0.69 0.67 0.66 0.64 0.61 0.59 0.57 0.56 0.52 0.50
0.48 0.51 0.59 0.69 0.83 0.93 1.00 1.01 0.97 1.01 1.02 1.03 1.01 0.99 0.93 0.92 0.90 0.84 0.78 0.76 0.74 0.73 0.70 0.66 0.66 0.64 0.61 0.59 0.58 0.55 0.53 0.50
0.49 0.52 0.53 0.58 0.70 0.80 0.88 0.93 0.92 0.97 1.00 1.02 1.04 1.01 0.95 0.93 0.91 0.86 0.82 0.78 0.79 0.80 0.78 0.73 0.66 0.63 0.61 0.59 0.56 0.56 0.55 0.52
0.49 0.50 0.54 0.58 0.62 0.70 0.76 0.83 0.87 0.90 0.95 1.00 0.99 1.00 0.95 0.94 0.90 0.87 0.85 0.86 0.85 0.79 0.79 0.71 0.71 0.67 0.63 0.57 0.55 0.54 0.53 0.52
0.50 0.52 0.55 0.59 0.65 0.71 0.77 0.80 0.79 0.83 0.86 0.90 0.92 0.95 0.95 0.92 0.89 0.85 0.84 0.83 0.82 0.81 0.78 0.74 0.64 0.61 0.59 0.56 0.56 0.58 0.55 0.48
0.47 0.50 0.55 0.59 0.65 0.69 0.72 0.74 0.72 0.74 0.79 0.81 0.84 0.85 0.86 0.82 0.80 0.80 0.77 0.76 0.78 0.78 0.67 0.60 0.61 0.66 0.63 0.61 0.58 0.50 0.43 0.36
0.46 0.47 0.50 0.53 0.54 0.59 0.65 0.69 0.71 0.73 0.76 0.78 0.79 0.80 0.80 0.78 0.78 0.77 0.77 0.75 0.71 0.65 0.68 0.69 0.68 0.64 0.61 0.53 0.45 0.41 0.36 0.31
0.45 0.47 0.47 0.48 0.51 0.56 0.57 0.62 0.68 0.71 0.74 0.74 0.74 0.74 0.75 0.75 0.75 0.74 0.74 0.71 0.72 0.72 0.71 0.69 0.65 0.57 0.51 0.46 0.40 0.36 0.32 0.28
0.45 0.44 0.44 0.49 0.52 0.55 0.59 0.60 0.64 0.69 0.71 0.71 0.70 0.72 0.73 0.74 0.75 0.73 0.72 0.72 0.70 0.68 0.66 0.62 0.55 0.50 0.42 0.37 0.35 0.32 0.28 0.24
0.43 0.47 0.49 0.51 0.51 0.53 0.57 0.61 0.63 0.66 0.67 0.68 0.70 0.72 0.72 0.71 0.70 0.69 0.69 0.67 0.65 0.64 0.61 0.55 0.53 0.43 0.36 0.33 0.31 0.28 0.25 0.21
0.41 0.49 0.52 0.53 0.53 0.53 0.55 0.58 0.64 0.67 0.67 0.67 0.69 0.68 0.67 0.66 0.65 0.65 0.64 0.63 0.61 0.58 0.53 0.51 0.44 0.35 0.32 0.30 0.28 0.25 0.22 0.19
0.44 0.48 0.53 0.57 0.60 0.60 0.58 0.59 0.63 0.65 0.66 0.66 0.65 0.66 0.64 0.63 0.63 0.62 0.61 0.59 0.57 0.50 0.45 0.45 0.38 0.32 0.28 0.28 0.27 0.24 0.20 0.18
0.42 0.41 0.43 0.51 0.64 0.62 0.62 0.64 0.62 0.61 0.66 0.66 0.65 0.63 0.61 0.61 0.60 0.59 0.57 0.54 0.49 0.43 0.46 0.44 0.37 0.30 0.26 0.25 0.24 0.22 0.19 0.17
Wind_Speed
27 28 29 30 30 32 32 31 30 30 29 29 28 27 26 26 25 23 22 22 21 21 20 20 20 20 19 19 19 19 19 19
30 30 29 30 30 31 32 33 32 32 31 31 30 29 28 27 26 25 24 23 23 22 22 21 21 21 21 21 21 20 20 21
32 31 30 31 31 32 32 34 34 33 33 32 32 31 30 29 28 27 26 25 24 23 22 22 22 22 22 22 22 22 21 21
27 29 32 32 33 34 34 35 35 35 34 33 33 32 31 30 29 29 28 27 26 25 24 23 22 22 21 21 21 22 22 21
28 28 30 32 33 35 35 36 37 37 36 35 35 34 33 32 31 30 29 29 27 26 25 25 24 23 22 22 22 22 23 22
28 30 31 32 34 36 36 37 38 38 38 38 36 35 34 33 32 31 31 30 29 28 27 27 26 25 24 23 23 23 22 22
28 29 31 32 33 35 37 38 39 39 40 40 39 37 36 34 33 32 32 31 30 29 29 28 28 27 26 25 24 24 23 22
30 29 30 30 32 32 33 36 38 39 40 40 40 38 38 36 35 34 33 33 32 31 30 30 29 28 27 27 26 25 24 23
29 29 30 32 33 33 34 35 36 37 38 39 40 40 38 37 36 35 35 34 33 33 31 29 28 29 26 26 25 25 25 24
30 32 31 31 32 33 33 35 35 36 37 38 38 38 38 37 37 36 36 35 33 33 32 32 32 28 27 26 26 27 27 26
30 30 29 29 29 30 31 33 34 35 35 36 37 37 38 37 37 36 36 35 35 34 34 33 31 31 30 28 28 27 25 23
24 24 24 26 27 27 28 29 31 32 34 34 34 35 36 36 36 35 35 34 33 34 32 31 31 30 29 28 27 24 22 21
22 22 21 21 22 23 26 30 32 33 33 34 33 34 34 35 35 34 34 33 32 32 32 30 30 29 28 25 24 23 20 19
21 21 21 20 20 21 21 22 25 30 31 32 32 33 34 34 33 33 34 33 32 31 30 30 29 27 25 23 21 20 20 18
24 24 23 22 22 21 20 21 21 22 25 29 30 32 32 33 32 32 32 31 30 30 29 27 25 24 23 21 21 20 19 18
25 25 23 23 22 21 21 20 21 21 21 24 26 28 28 28 28 28 28 28 27 26 25 23 23 22 20 20 19 19 19 18
23 24 25 25 24 22 21 20 19 21 21 22 23 25 25 26 26 26 25 25 25 24 22 21 20 20 20 19 18 18 18 19
20 20 21 23 23 24 23 23 21 21 21 20 21 21 21 22 22 22 22 22 21 20 20 19 19 19 19 18 18 18 18 18
19 20 21 22 25 26 25 25 26 25 23 22 21 20 20 20 20 21 20 21 21 20 20 20 20 19 18 19 18 18 18 17
Wind_Direction
258 255 251 245 244 241 240 240 239 238 239 240 242 244 247 249 251 254 255 257 260 262 264 265 267 270 272 275 277 279 280 280
257 255 251 247 244 241 239 239 238 237 238 238 240 242 246 248 252 253 254 256 259 260 263 264 267 269 272 273 275 277 280 279
258 253 249 246 245 241 241 239 237 237 238 239 241 243 245 248 251 252 253 255 257 259 261 263 265 268 270 273 274 275 278 280
262 254 250 247 246 243 242 239 238 238 239 240 241 243 245 247 249 250 251 253 255 257 259 262 265 267 270 272 275 276 276 279
265 261 255 250 247 245 244 241 240 238 238 239 240 241 244 246 246 247 249 251 253 256 259 261 264 266 268 271 275 276 277 276
265 262 262 254 249 247 245 244 242 240 240 240 240 241 243 244 245 245 248 250 253 255 258 260 263 265 268 270 274 276 277 276
267 266 261 257 252 249 247 244 242 241 241 241 240 240 241 242 243 244 246 250 253 255 257 259 261 264 266 269 272 274 276 276
268 265 263 259 255 251 248 245 243 242 241 240 240 241 241 240 242 244 246 248 251 253 258 258 259 263 265 267 269 271 274 275
267 264 262 260 257 254 249 247 244 242 241 241 241 241 241 242 242 244 247 248 250 253 256 254 258 264 259 265 266 269 271 273
267 270 267 261 257 253 249 246 245 243 241 241 240 239 240 242 243 244 246 250 251 254 254 255 261 255 259 263 267 271 270 272
265 266 265 261 258 253 250 244 242 242 241 239 238 238 240 241 242 245 247 249 253 255 256 256 255 257 262 264 268 269 267 266
264 266 265 261 259 254 250 244 243 242 240 239 239 239 239 240 243 246 248 251 254 254 254 253 255 257 260 262 263 260 260 260
266 265 264 264 262 258 254 249 247 245 240 239 239 240 240 241 244 245 247 251 252 250 252 253 254 256 257 255 254 255 252 256
263 263 265 266 266 260 259 254 249 243 240 239 239 241 240 242 243 243 247 249 250 251 252 251 252 250 248 249 247 249 252 254
262 264 266 263 263 260 257 255 250 245 242 240 239 239 239 241 242 244 244 246 248 248 247 246 243 242 242 242 244 249 250 257
259 261 260 260 259 259 259 254 249 244 243 238 239 238 238 237 238 239 240 242 241 239 237 234 237 237 238 240 244 248 254 258
264 259 258 257 255 255 253 252 249 241 243 240 238 236 236 235 237 237 235 233 231 230 229 231 231 236 236 241 246 251 255 261
267 264 257 251 253 251 249 251 249 242 241 237 233 229 228 227 226 226 225 222 221 224 224 228 232 236 238 243 250 253 260 266
267 266 267 265 255 252 248 249 246 245 242 235 228 223 223 222 220 220 219 221 224 227 230 233 235 238 242 245 254 259 263 268